Aeroporto :
LOGIN :

Iscrizione | Disclaimer

   EN    FR    IT 

 










Sommario :    VFR   VFR Marginale   IFR   IFR Intensivo   IFR Molto Intensivo
Visibilità : 
Base nubi : 
>= 8 km
>= 3000ft
5 / 8 km
1000 / 3000 ft
1500m / 5 km
500 / 1000 ft
800 / 1500m
200 / 500 ft
< 800m
< 200 ft
Simboli :   Temporali  Nebbia  Neve Forte  Precipitazioni Forti  Vento > 20 kt
SIGMETs :   Varie  Temporali  Ghiacco  Turbolenza  Onda orograficha  Ceneri Vulcaniche






- Altitudine del aeroporto : 2395 ft
- Codice IATA : AMM


OJAI - Queen Alia Int.

ULTIMO METAR :
  • 241800Z 08010KT 5000 HZ NSC 14/03 Q1015 NOSIG

METARs OBSOLETI :
  • 241700Z 08012KT 5000 HZ NSC 15/04 Q1015 NOSIG
  • 241600Z 13006KT 5000 HZ NSC 15/06 Q1016 NOSIG

TAF TAF OJAI
Valido dal 24 a 18 ore il 26 a 00 ore UTC


241654Z 2418/2524 12008KT 6000 NSC
PROB30 2503/2507 4000 HZ
BECMG 2507/2509 26012KT 5000 HZ SCT035 BKN100
PROB40
TEMPO 2514/2524 4000 RA SCT025TCU BKN030
FIR OJAC / Asia



MetMap, La meteo Aeronautica in un colpo d'occhio ! - Copyright ORBIFLY Dicembre 2007 - Disclaimer

ORBIFLY MET'MAP TEAM :

Programmazione e sviluppo : Alexandra Zaïnal
Concezione : Baudouin d'Aumeries
Aiuto per la programmazione : Marc-Olivier Méhu
Supporto tecnico e logistico : Manuel Goepfert
Aiuto per la traduzione : Arnaldo La Scala

Contatto : metmap@orbifly.com




FONTI E CREDITI :

   NOAA